Lapse_Rate
3.3 2.9 2.5 1.0 0.8 0.9 1.3 1.1 0.9 1.2 0.9 0.4 -0.6 -1.1 -1.5 -1.5 -0.0 0.5 -0.3 -1.6 0.3 -0.1 3.5 3.6 3.6 2.7 2.9 2.6 6.5 4.2 5.2 3.2 4.9 6.5 6.5 6.5 6.5 6.5 6.5 6.5 6.5 6.5 6.5 6.5 6.5 6.5 6.5 5.3 6.3 6.5 5.5 3.0 2.2 2.4
3.0 2.8 2.0 1.6 1.6 1.5 1.4 1.0 1.2 1.3 0.7 -0.6 -2.3 -2.7 -2.7 -1.7 -0.4 0.6 0.7 -1.0 -1.5 -0.3 3.3 2.8 3.5 2.6 2.7 2.4 0.6 2.6 3.8 4.0 2.8 6.5 6.5 6.5 6.5 6.5 6.5 6.5 6.5 6.5 6.5 6.5 6.5 6.5 5.6 4.2 4.7 3.0 1.5 1.2 2.0 1.6
2.9 2.5 2.2 2.1 1.9 1.7 1.2 1.2 1.4 0.9 -0.8 -1.9 -2.1 -2.5 -2.6 -2.4 0.0 -0.0 -0.6 -1.2 -1.4 -1.0 2.2 2.7 4.1 3.6 2.8 1.6 1.2 1.8 0.7 2.5 2.3 0.7 4.6 6.4 6.5 6.5 6.5 6.5 6.5 6.5 5.7 6.5 6.5 6.3 5.6 3.4 3.8 4.3 1.8 2.5 1.1 1.9
2.9 2.7 2.4 2.2 1.9 1.7 1.4 1.4 0.7 -0.8 -1.3 -1.6 -1.9 -2.0 -2.4 -2.1 0.6 0.7 -1.0 -1.9 -2.1 -2.8 0.5 3.0 2.7 4.5 4.0 3.1 3.2 2.1 0.1 -0.5 -0.9 -0.5 2.8 6.5 6.5 5.2 6.5 6.5 6.5 5.8 6.0 6.5 6.5 6.0 5.1 3.8 2.5 2.4 1.8 1.6 2.6 3.6
2.6 2.8 2.8 2.4 2.3 1.8 1.6 0.4 -0.2 -0.5 -0.8 -1.1 -1.2 -1.6 -1.9 -0.7 0.6 0.0 -1.7 -2.2 -1.6 0.9 2.8 1.1 2.8 3.5 2.5 3.0 2.2 1.3 0.9 0.2 0.3 1.1 5.5 6.5 2.7 6.0 5.8 6.2 6.5 4.9 6.5 6.5 6.5 3.6 4.2 3.8 2.1 0.8 1.2 2.4 4.1 5.1
3.6 3.2 2.9 2.7 2.3 2.0 1.1 0.2 -0.1 -0.3 -0.4 -0.3 -0.9 -1.1 -0.6 1.6 2.2 0.7 1.4 0.1 -1.4 -1.4 -0.7 6.3 2.2 3.1 2.4 2.2 2.0 2.1 1.8 0.7 0.6 0.3 1.8 1.1 3.3 3.5 6.5 6.5 5.0 2.9 3.0 3.0 4.1 3.2 3.1 3.4 1.8 1.9 3.5 4.5 5.5 5.0
3.1 3.1 2.9 2.8 2.7 2.0 0.7 0.5 0.4 0.2 -0.1 0.2 -0.2 -0.2 0.9 2.3 -0.2 0.9 1.5 0.8 -1.3 -1.0 -1.5 5.2 3.4 2.8 2.5 2.2 0.7 1.8 1.0 1.4 2.2 0.9 1.9 1.7 3.2 4.1 6.5 6.5 4.2 2.5 2.7 2.9 2.9 2.3 3.9 3.0 2.7 4.3 5.2 5.2 4.7 4.5
2.4 2.6 2.7 3.0 3.1 2.8 2.0 1.2 0.9 0.8 0.9 1.0 1.2 1.8 1.7 1.5 0.9 1.7 0.4 -0.8 -0.9 -0.6 -1.4 6.5 6.5 2.4 3.1 1.4 1.8 1.1 0.7 1.8 2.6 3.7 3.7 4.9 4.0 5.1 6.5 5.8 2.8 3.6 4.2 4.4 2.4 3.3 3.7 2.5 4.2 5.3 4.9 4.9 4.5 5.2
2.6 2.2 2.3 2.6 2.7 3.0 3.0 2.7 2.2 1.8 1.8 1.9 2.8 3.0 1.9 1.2 1.7 2.6 0.2 0.2 0.9 1.6 2.3 4.4 6.5 6.5 3.0 3.5 2.2 1.9 2.2 6.2 4.0 5.4 5.0 4.6 6.5 6.5 6.4 5.5 4.9 4.3 4.7 4.8 2.8 3.7 3.6 4.3 5.0 5.6 5.3 5.3 5.9 6.3
3.5 3.2 2.5 2.4 2.3 2.7 3.4 3.9 3.9 2.5 2.4 3.3 2.3 1.8 0.5 1.9 1.3 1.2 2.1 0.8 0.2 1.3 1.1 5.2 4.6 6.5 5.3 3.4 4.8 4.0 3.6 6.5 6.5 6.0 5.1 6.5 6.5 5.1 4.7 4.4 4.1 4.3 4.4 2.5 3.4 5.2 4.5 5.4 5.1 5.2 5.2 6.3 6.7 5.5
3.9 3.8 3.4 3.1 2.8 2.5 2.7 2.9 3.2 4.3 4.4 1.8 2.8 2.7 1.9 2.1 1.9 1.0 4.0 4.4 5.4 5.6 4.4 4.6 4.3 6.0 4.3 6.2 6.5 3.6 6.5 6.5 6.5 6.3 6.5 6.5 6.5 6.0 5.0 3.8 3.2 3.0 3.4 3.9 4.7 4.3 4.6 4.5 4.2 5.2 5.4 4.7 5.1 4.1
4.1 3.9 3.6 3.2 3.1 3.3 3.4 2.9 3.0 2.4 1.9 2.3 1.2 2.2 1.1 1.4 1.8 6.2 6.5 5.4 6.4 6.5 4.7 5.1 4.8 5.0 3.7 3.2 5.3 5.1 6.5 6.5 6.5 5.7 6.5 6.5 6.5 6.2 5.3 5.4 5.3 4.5 3.6 3.8 4.0 4.5 5.7 6.7 6.4 5.5 4.6 4.1 4.0 2.7
4.2 4.4 4.6 4.4 4.4 4.5 4.0 2.8 2.6 2.2 2.4 2.3 2.2 2.4 4.3 4.4 6.5 6.5 6.5 6.5 6.5 5.7 5.0 4.4 5.9 3.8 3.8 3.6 5.2 6.4 6.5 6.5 5.1 6.5 6.5 6.5 6.9 6.7 6.3 6.0 5.1 5.0 4.4 5.3 5.9 5.7 6.2 5.3 4.4 4.4 2.7 3.7 1.1 2.8
4.6 4.6 4.6 4.7 4.4 4.1 3.8 3.9 3.7 3.2 2.7 3.0 5.0 6.5 6.5 6.5 6.5 6.5 6.5 6.5 5.5 5.0 4.8 4.5 5.4 5.4 4.6 6.0 6.3 6.5 6.5 6.4 6.5 6.5 6.5 6.5 6.6 6.5 6.5 5.3 5.3 4.3 3.6 4.9 5.4 4.8 4.7 3.2 3.0 1.5 1.3 0.8 0.7 2.7
4.9 5.0 4.8 4.5 4.7 4.4 3.8 3.8 3.8 2.2 2.0 4.6 4.7 6.5 6.5 6.1 6.1 5.8 5.2 5.2 4.7 4.7 4.8 5.2 5.5 5.7 6.4 6.5 6.5 6.5 6.5 6.5 6.5 6.5 6.5 6.0 5.3 5.4 6.4 5.4 5.6 4.8 3.7 4.5 5.4 3.9 1.9 1.5 1.9 3.0 2.6 2.1 2.7 -0.1
5.5 5.1 3.8 4.7 4.3 4.2 3.9 3.0 1.2 0.6 1.4 6.1 5.6 6.4 6.3 6.3 6.5 6.2 6.1 5.8 4.8 4.5 4.4 4.9 6.4 6.5 6.5 6.5 6.5 6.5 6.5 6.5 6.5 6.4 5.0 5.0 5.0 5.1 4.7 5.3 6.0 5.2 5.1 5.0 4.7 4.6 4.0 1.8 1.5 3.9 2.4 1.6 0.3 -0.2
5.0 5.0 4.9 4.7 4.4 4.3 3.5 1.3 0.6 2.6 3.7 6.4 6.2 5.1 5.5 5.6 6.2 5.8 5.1 5.3 4.7 5.2 6.5 6.2 6.5 6.5 6.2 6.5 6.5 6.5 6.5 6.5 5.7 5.6 3.7 4.9 5.2 5.3 5.0 4.7 3.4 4.2 4.8 4.5 4.3 4.3 4.4 3.5 0.8 1.6 3.0 4.8 3.8 3.0
4.7 5.7 5.6 4.5 3.5 2.4 2.0 1.3 1.9 4.3 5.8 5.5 6.2 5.6 4.8 4.6 5.5 5.1 4.7 3.7 3.3 4.4 4.7 6.2 4.9 6.5 6.5 6.5 6.5 6.3 5.5 5.0 4.4 4.6 4.4 5.2 5.1 4.9 5.1 5.1 5.0 4.9 5.0 4.9 4.0 4.5 4.3 1.9 4.1 4.1 4.6 4.6 3.6 3.2
4.6 4.3 4.7 4.6 3.4 1.4 2.2 3.0 3.4 6.3 5.9 5.4 5.1 4.4 4.7 4.6 4.1 3.8 4.1 2.7 1.7 1.3 2.7 2.7 6.6 6.5 6.5 4.1 3.6 3.3 2.7 2.7 3.5 4.1 4.4 4.7 4.7 4.8 4.9 5.1 5.2 5.0 4.8 4.8 4.7 3.5 3.4 4.1 3.7 3.5 3.8 3.3 3.3 3.2
5.2 4.5 4.3 4.3 4.3 1.8 3.8 3.1 2.7 4.3 5.1 5.7 5.1 5.2 5.0 5.0 4.4 4.8 4.9 3.7 2.3 1.6 2.7 5.9 5.8 2.5 2.0 1.8 1.3 1.2 0.9 0.8 1.8 1.8 2.4 3.1 3.3 4.2 3.4 3.1 2.6 3.0 2.8 2.8 2.5 1.2 2.5 2.8 3.5 3.6 3.8 3.9 4.7 5.4
3.5 3.1 2.8 3.3 1.9 2.0 2.6 3.5 5.1 4.6 5.8 5.7 5.2 5.1 5.5 5.5 5.7 5.6 5.4 2.9 1.1 0.8 3.4 2.3 -0.0 0.6 1.6 1.0 0.3 0.4 2.2 3.2 2.8 1.5 2.0 2.6 2.1 2.6 2.6 2.3 2.1 2.0 1.4 1.5 2.9 3.2 3.5 3.9 4.6 4.7 4.6 5.5 6.3 6.6
4.4 4.1 1.8 2.6 2.9 2.5 2.6 3.8 4.6 4.3 5.3 5.3 5.3 5.4 5.8 6.0 5.7 5.8 4.5 4.0 4.3 3.2 3.3 1.8 2.5 1.8 3.4 3.1 1.7 1.3 2.6 2.4 2.2 2.0 1.8 1.9 2.4 2.1 1.8 1.6 1.0 0.5 1.9 2.6 3.3 4.0 4.3 4.9 4.6 4.0 4.3 4.3 4.9 5.4
4.2 3.7 4.1 4.1 1.9 4.3 3.9 4.1 5.2 5.7 6.3 5.8 5.7 6.1 5.7 5.5 5.6 5.3 5.7 7.1 5.5 4.2 2.9 3.2 3.6 2.7 2.0 2.2 2.0 1.4 1.8 2.5 1.9 1.8 2.1 2.0 2.0 0.4 0.3 1.4 1.0 0.9 1.5 2.6 3.7 3.6 2.8 2.0 2.5 2.0 2.5 2.9 3.4 3.9
4.9 4.6 4.7 4.6 5.5 3.6 1.2 3.7 4.2 4.7 3.8 5.2 6.5 6.5 6.4 5.7 5.3 5.6 6.5 5.3 6.2 4.2 2.9 2.5 2.9 2.5 3.0 3.2 2.5 1.9 2.1 2.6 2.5 1.6 1.3 1.2 1.6 1.7 2.1 2.2 1.5 1.0 1.6 2.1 2.2 0.6 1.0 0.7 0.4 1.8 2.0 2.6 3.0 3.5
6.8 5.7 5.8 3.6 5.5 2.7 7.0 5.9 5.0 5.6 6.5 6.4 6.5 6.5 5.8 4.3 6.5 6.5 6.5 6.2 5.6 4.6 3.4 3.2 4.6 4.4 3.9 4.3 4.9 3.2 2.2 2.2 2.1 2.1 1.4 1.2 0.1 1.0 2.0 2.7 2.4 1.5 0.6 -0.7 -0.9 0.1 0.1 0.4 0.8 1.4 1.9 2.6 2.9 3.5
6.5 3.5 5.9 2.7 3.2 6.1 5.7 6.5 6.5 6.5 6.5 6.5 6.4 5.5 3.4 6.2 6.5 6.5 6.6 6.1 5.8 5.1 4.2 4.0 4.6 4.6 4.6 4.9 4.3 2.9 1.9 1.5 2.3 2.4 1.5 1.5 1.1 -0.7 -1.3 -0.5 0.0 -0.3 0.2 -1.7 -0.8 -0.3 0.4 0.7 0.9 1.1 2.0 2.5 2.8 3.7
6.5 4.8 4.2 4.7 4.8 5.1 4.8 4.0 4.9 6.3 6.5 6.5 6.4 6.0 6.5 6.5 6.5 6.5 6.1 5.2 5.9 4.8 4.2 4.5 5.3 4.8 4.8 3.1 2.8 1.7 0.3 -0.1 -0.0 2.0 1.4 1.4 1.4 1.4 -0.2 -1.8 -0.3 0.6 0.6 -0.8 -2.0 -1.0 0.4 0.3 0.5 1.2 2.4 2.9 4.5 4.1
4.9 3.1 6.3 4.4 5.4 5.6 6.0 6.1 6.5 6.5 6.5 6.0 6.0 6.5 6.5 6.5 6.5 6.4 6.0 5.4 4.4 4.3 3.4 2.9 3.4 3.4 2.8 2.2 1.1 0.4 1.1 -0.3 2.0 1.5 1.8 0.6 -0.7 -2.5 -2.5 -3.6 -2.6 -0.1 -2.4 -3.3 -4.2 -1.5 -0.6 0.4 1.2 2.4 3.4 4.8 4.0 3.4
5.7 5.2 5.4 6.1 5.1 4.0 5.7 6.3 6.3 6.3 5.9 5.4 5.7 6.5 6.4 5.8 4.1 4.8 4.4 3.8 4.0 3.3 2.6 2.4 1.9 1.7 1.2 0.6 -0.8 -1.8 -3.2 -3.0 -1.6 -2.4 -3.6 -5.3 -5.2 -3.2 -3.4 -5.5 -5.3 -4.9 -4.9 -4.4 -1.9 1.0 2.0 2.9 3.8 5.1 5.3 5.6 3.4 2.1
5.2 5.2 4.0 3.7 5.7 6.5 5.7 5.1 5.7 5.2 4.9 2.8 2.9 4.4 5.2 5.0 4.0 3.2 3.0 2.8 2.0 1.6 0.5 -0.5 -2.2 -1.0 -5.1 -4.2 -4.5 -3.3 -3.7 -5.6 -5.4 -3.9 -4.0 -4.2 -1.9 -2.3 -5.8 -4.7 -4.3 -4.4 -4.7 -5.5 -2.9 -2.3 -1.8 -2.1 -1.4 -1.4 -0.2 0.2 1.4 1.6
4.1 4.7 5.4 4.8 5.8 5.8 5.2 5.5 5.5 5.6 5.4 4.8 3.1 2.8 4.2 3.9 2.7 2.5 2.4 1.0 1.5 -0.2 -0.5 -2.5 -2.4 -6.7 -4.0 -4.7 -5.1 -4.8 -3.0 -4.7 -5.5 -3.6 -3.3 -3.9 -4.6 -6.0 -5.5 -4.5 -4.1 -4.3 -6.1 -5.1 -5.5 -5.5 -4.1 -3.2 -4.3 -4.1 -2.8 -1.6 -1.4 -0.5
5.2 5.6 5.6 6.5 4.8 4.4 0.7 4.1 5.1 0.2 4.3 6.4 3.2 1.7 0.2 -0.8 0.4 1.7 1.7 -0.9 -1.5 -2.1 -5.3 -7.3 -4.8 -3.1 -4.2 -4.4 -6.0 -6.3 -2.9 -5.0 -5.4 -5.4 -3.8 -3.1 -4.0 -4.5 -2.3 -2.0 -2.4 -4.0 -7.7 -7.1 -6.7 -5.4 -4.8 -5.1 -5.1 -4.8 -4.7 -3.6 -3.3 -2.4
-2.2 -3.3 -1.9 -2.8 -0.4 1.3 0.8 -2.1 -1.8 -0.4 1.4 4.8 1.9 1.0 -0.9 1.1 3.1 2.6 1.0 -2.5 -2.5 -3.8 -4.3 -5.6 -7.0 -7.2 -5.5 -5.5 -5.0 -5.5 -3.0 -1.9 -1.1 -0.2 1.3 2.4 2.1 1.6 0.9 -0.3 -2.6 -6.4 -7.1 -7.5 -7.1 -6.7 -4.9 -4.5 -5.0 -4.8 -4.6 -4.4 -3.8 -2.7
Wind_Speed
24 25 24 22 21 20 19 19 19 16 14 12 13 15 14 13 9 4 1 2 4 3 1 2 1 5 4 3 5 5 4 4 3 4 3 4 3 5 2 4 6 7 6 4 3 1 8 7 3 8 6 2 9 9
24 24 23 21 21 21 19 20 18 15 14 12 12 14 15 14 7 5 3 2 2 5 3 1 3 2 2 6 6 1 5 4 5 4 1 3 2 2 2 3 2 3 7 5 9 6 4 6 4 5 6 6 7 8
25 23 22 21 21 21 20 19 17 15 14 13 12 14 15 15 14 7 3 2 4 4 4 4 3 5 5 2 3 5 2 5 4 2 4 3 3 4 4 5 3 4 4 2 2 5 8 8 5 3 6 5 5 6
23 24 22 21 21 21 20 18 16 15 13 14 14 14 15 16 16 9 4 2 4 4 4 4 3 3 6 5 3 3 7 6 6 3 3 3 3 4 3 3 4 4 5 5 5 7 5 7 7 5 5 6 7 8
23 22 21 20 20 21 19 17 15 15 13 13 14 13 14 14 18 15 5 3 2 4 4 2 4 5 6 5 8 8 9 6 3 2 2 3 2 3 1 2 3 5 7 4 7 8 5 5 5 7 9 10 10 9
23 22 20 20 20 19 19 16 15 15 13 12 12 12 12 8 5 4 4 4 8 2 4 2 3 5 6 7 9 7 4 3 3 4 3 2 2 3 4 4 7 5 5 6 6 5 4 3 5 6 7 8 7 9
23 22 21 21 20 19 18 16 15 14 13 11 12 13 12 11 5 4 4 2 10 2 3 3 3 4 4 4 3 3 4 2 2 2 2 3 1 3 3 5 7 8 8 7 4 6 1 4 5 7 7 8 12 11
24 22 20 20 20 19 18 16 13 12 11 10 11 14 20 22 13 4 4 12 8 5 4 3 3 3 5 2 2 3 2 2 4 2 1 2 1 2 3 9 6 7 5 2 6 3 3 6 6 7 12 14 13 10
22 21 20 18 16 16 16 15 13 11 9 8 8 9 6 5 3 2 16 10 7 4 3 2 4 3 3 2 1 3 2 2 2 1 1 3 1 4 4 4 5 4 4 3 4 3 6 8 11 12 12 12 10 5
20 17 18 18 15 14 15 15 12 10 7 6 6 4 3 2 9 9 5 4 5 3 3 2 1 1 2 1 2 2 2 1 1 3 1 2 3 4 3 7 7 7 5 7 5 5 8 10 11 13 10 6 4 3
23 23 22 20 18 14 14 14 13 10 7 3 3 2 2 7 3 4 3 3 1 3 3 1 2 3 2 2 2 1 1 0 2 3 2 2 2 4 10 9 8 9 10 10 11 15 14 13 11 6 5 4 2 3
24 24 23 23 20 16 14 13 7 4 2 3 4 3 3 4 3 5 2 1 2 2 2 1 0 1 0 1 3 0 2 1 5 2 1 2 1 5 9 10 12 14 17 18 17 17 13 10 6 4 2 0 2 2
22 23 23 23 22 20 20 20 20 17 4 3 4 4 2 3 2 4 6 1 2 1 2 2 1 1 2 3 3 2 3 3 1 2 2 1 3 6 6 5 9 10 13 12 11 8 7 5 4 3 1 1 2 3
19 22 23 22 20 19 16 9 7 5 3 3 3 3 1 2 2 1 2 2 1 1 1 1 2 2 1 2 1 2 0 0 2 1 2 2 5 5 7 6 6 7 7 8 6 5 4 3 1 0 1 1 2 4
18 19 17 21 20 19 13 11 7 3 3 3 3 2 2 2 2 2 1 2 1 1 1 2 2 1 1 2 1 2 1 1 2 1 2 2 4 5 4 6 7 7 5 4 0 1 1 1 1 3 3 3 4 3
6 10 10 19 20 17 14 8 5 3 3 3 3 3 1 3 2 2 1 1 1 1 1 1 2 2 1 1 2 1 2 1 1 1 1 3 3 4 4 4 4 3 2 2 1 1 2 2 2 4 5 4 4 3
16 3 15 20 17 9 14 4 3 5 3 3 2 2 2 3 2 1 1 1 1 1 1 1 3 2 2 2 1 1 2 1 1 2 1 1 1 3 4 3 2 1 2 3 3 3 3 3 2 2 4 5 5 5
4 8 16 20 13 5 3 3 3 3 4 2 2 1 2 2 2 2 1 2 2 2 2 2 3 2 2 2 1 3 2 3 2 1 2 2 2 2 2 1 2 2 2 3 3 3 3 3 5 4 6 6 5 6
7 13 18 19 8 3 3 4 3 3 2 2 2 2 2 2 1 0 0 2 1 1 3 2 3 2 2 2 2 1 1 2 2 3 2 1 1 0 2 2 1 2 3 3 4 3 3 5 3 4 5 5 5 5
9 18 20 15 9 3 4 3 2 3 2 1 2 2 2 1 1 1 2 2 2 2 2 1 3 3 3 2 2 2 2 3 3 2 1 1 2 4 6 4 3 4 4 6 5 6 6 6 6 7 7 8 8 9
12 9 13 9 3 5 3 2 3 1 2 2 1 2 2 1 1 1 1 1 3 0 1 2 2 2 1 2 2 2 3 2 2 3 3 2 3 5 5 4 4 4 3 4 7 8 9 7 8 9 9 9 8 8
3 8 3 5 4 5 3 3 1 1 2 1 2 2 2 1 0 1 1 2 1 2 1 1 2 1 3 4 4 5 4 7 6 5 7 5 4 3 3 5 5 6 6 6 6 6 7 7 8 8 8 9 10 10
6 5 3 3 4 4 3 2 2 1 1 1 1 2 1 1 1 2 1 2 0 2 2 2 4 8 9 8 8 11 10 8 6 6 5 4 3 3 3 6 6 6 5 5 6 5 5 7 7 8 7 8 8 9
5 3 4 3 2 2 3 2 2 1 2 1 2 1 2 2 1 1 2 1 2 2 3 4 3 6 6 8 7 7 6 4 4 5 3 1 3 6 5 5 5 5 5 5 5 3 5 6 8 7 8 10 9 9
2 3 2 3 2 4 3 4 2 2 2 2 2 2 2 2 2 2 2 1 2 2 4 5 6 6 6 5 4 4 6 4 3 5 6 5 3 3 4 4 4 5 6 6 7 7 7 7 8 8 10 9 12 13
2 3 3 4 2 1 3 2 3 5 3 3 3 1 1 2 2 3 1 2 2 2 2 4 3 4 5 5 4 4 5 4 2 4 5 5 5 3 3 4 4 3 6 3 6 8 9 9 9 12 11 13 15 14
2 3 3 2 1 1 1 1 1 2 3 3 2 2 2 3 2 2 1 3 2 3 4 4 5 5 5 6 5 3 3 3 2 5 6 6 6 5 4 2 5 4 6 6 5 5 8 9 10 10 11 11 9 8
3 2 2 2 2 2 2 1 1 2 2 1 3 2 3 3 2 2 3 3 4 5 5 6 6 6 6 5 2 2 4 3 6 5 4 3 2 1 2 2 4 8 5 5 4 5 5 7 8 10 10 6 4 6
1 2 1 2 2 2 1 1 1 1 2 1 3 2 2 3 2 3 3 2 4 4 4 5 5 4 4 4 4 4 4 4 5 5 3 3 3 3 3 3 3 2 4 4 8 9 11 8 9 7 7 4 3 3
2 1 2 1 1 1 1 2 2 2 2 2 3 3 2 2 3 3 2 4 4 5 4 4 2 3 2 3 1 4 3 3 3 3 2 3 3 3 3 4 4 4 3 3 4 7 8 4 6 4 5 4 4 4
1 2 1 1 1 1 1 2 1 1 1 3 3 3 3 2 2 3 3 3 3 3 3 4 4 3 4 4 3 2 3 2 3 2 2 2 2 3 3 4 5 7 2 4 4 3 3 3 3 4 5 6 7 5
3 3 2 2 2 2 4 3 2 2 3 1 2 3 2 3 2 2 1 2 3 4 1 2 3 1 1 0 0 1 2 2 3 3 4 2 3 5 8 9 9 6 3 4 4 3 3 4 4 4 4 6 5 5
3 3 3 2 4 5 2 3 5 4 3 2 2 2 1 3 2 2 1 2 3 3 2 2 3 2 3 4 3 2 2 5 7 7 8 6 6 8 8 7 4 3 3 4 4 4 4 4 4 4 5 5 5 5
Wind_Direction
132 132 133 132 134 135 128 123 116 116 105 83 66 55 46 62 112 127 181 351 114 100 322 9 61 133 114 114 135 191 66 343 45 73 123 197 154 220 132 186 180 171 156 198 102 57 276 165 85 168 207 206 181 183
130 132 129 131 129 125 124 116 116 111 96 78 56 48 38 42 65 126 84 342 43 83 150 356 75 58 51 168 128 40 159 164 165 92 126 127 156 167 147 233 113 240 190 184 186 214 246 225 215 236 173 158 196 179
130 127 127 126 125 122 116 114 114 102 84 72 54 45 36 34 54 100 111 13 57 84 4 48 8 335 24 28 168 119 297 154 135 130 144 153 164 134 170 237 198 245 160 213 93 255 233 244 263 228 194 204 154 144
129 128 127 125 121 118 115 114 107 92 81 69 55 42 34 37 61 79 78 351 73 99 109 281 336 35 332 11 82 94 126 73 94 72 106 139 156 187 208 207 173 203 141 206 257 281 284 263 236 209 182 155 140 146
119 121 125 123 123 118 117 110 101 93 82 71 59 41 34 61 76 82 81 34 51 120 157 244 317 2 357 23 73 82 107 107 112 82 103 207 160 116 112 71 259 191 198 168 236 225 199 231 209 175 162 168 157 152
119 117 120 120 118 117 113 106 101 93 83 72 58 41 34 54 66 57 41 9 11 52 96 108 293 351 356 39 59 58 62 91 102 136 196 234 250 116 164 210 252 238 228 205 241 221 214 303 187 155 160 153 143 132
105 109 110 112 115 113 109 107 103 94 84 73 57 42 54 71 67 75 145 281 340 33 83 59 347 329 338 32 40 23 24 55 100 127 187 176 197 121 164 223 244 246 248 245 194 124 124 194 194 167 128 103 102 99
82 94 104 113 117 116 116 114 109 100 88 76 61 73 80 90 112 47 359 357 343 90 62 111 270 9 1 21 28 355 36 19 26 112 86 189 52 123 245 242 258 258 298 280 192 248 236 138 130 113 119 114 105 100
70 76 86 97 111 124 124 121 114 103 90 69 46 75 47 35 46 307 322 330 37 95 115 100 148 217 7 50 37 24 31 38 316 133 239 114 196 221 258 324 306 295 224 260 128 108 116 116 108 111 102 84 107 160
67 72 80 88 100 119 139 134 127 107 88 43 44 46 30 333 313 323 4 27 19 348 40 101 93 131 70 22 18 61 1 160 222 246 89 176 255 296 339 299 260 273 290 150 119 134 110 110 105 98 106 147 133 134
67 68 68 73 81 97 124 131 123 110 48 42 62 85 245 319 51 33 61 66 22 30 14 66 157 136 348 112 170 115 169 328 238 257 194 279 287 311 340 358 21 54 68 59 77 84 85 88 90 102 84 75 133 214
59 58 57 60 67 78 95 109 91 56 53 119 129 92 31 34 47 87 81 31 58 183 348 75 317 70 257 106 99 220 164 121 244 152 146 260 342 29 39 41 56 69 74 73 72 77 79 88 82 100 120 77 272 293
57 52 52 49 52 61 67 75 87 106 100 48 51 56 36 341 83 170 162 188 130 360 354 14 50 6 6 37 72 102 187 223 84 194 221 62 43 51 44 71 73 80 94 98 101 99 91 90 69 72 176 256 266 328
60 59 51 47 45 48 49 65 89 77 67 65 67 82 46 104 54 88 72 89 115 104 68 51 64 63 345 58 73 188 129 52 205 218 262 12 21 67 53 46 53 25 15 101 124 113 122 132 113 329 283 305 322 290
61 56 47 30 28 27 30 44 58 57 71 78 75 92 83 112 75 72 77 109 41 88 67 69 65 68 23 86 27 83 51 284 57 80 8 18 39 78 43 56 47 44 34 33 306 70 37 50 11 307 289 273 263 280
58 51 20 14 8 17 17 31 30 60 50 63 57 98 105 110 95 112 106 73 166 123 99 73 111 86 59 106 74 242 118 56 123 146 187 137 106 82 73 109 219 249 245 260 324 353 344 353 319 314 318 303 293 247
54 41 357 11 3 17 27 70 43 49 99 70 56 39 90 74 87 110 120 161 158 79 80 98 83 184 61 79 119 45 126 109 32 329 335 22 69 167 195 205 228 237 23 9 356 351 325 327 337 340 336 318 317 296
43 3 11 8 6 24 33 42 77 74 64 55 86 60 60 46 86 37 46 7 81 155 130 170 129 81 122 140 170 184 184 197 209 257 236 220 181 189 223 92 78 34 352 331 316 307 311 329 319 299 306 301 305 295
51 26 15 10 21 77 53 16 53 82 58 76 69 45 64 83 55 16 318 331 196 137 104 50 81 152 208 215 188 187 208 189 177 173 153 125 203 207 66 55 353 350 339 336 343 330 323 330 306 312 314 319 306 302
33 25 9 12 23 59 45 358 51 90 101 198 76 60 73 55 342 17 333 351 33 61 48 106 196 208 180 228 184 165 172 171 128 85 28 354 35 48 44 31 21 12 24 22 25 21 9 1 359 348 338 329 314 305
21 349 6 18 31 46 106 5 55 80 137 83 108 59 57 12 345 287 253 21 48 108 281 221 228 257 180 79 81 94 72 64 86 146 172 91 16 66 50 36 32 34 44 25 9 356 0 354 346 345 336 330 325 314
351 358 37 11 41 8 60 355 50 326 57 120 98 109 116 141 153 294 349 23 243 271 259 270 329 93 76 51 40 28 61 79 61 60 47 62 43 21 20 15 29 31 31 25 4 355 346 343 340 334 327 324 324 319
18 30 40 18 54 47 292 344 55 32 130 210 75 80 95 78 51 30 294 246 141 25 327 356 38 78 94 75 68 52 40 58 63 51 45 56 57 27 41 60 50 46 25 8 353 353 337 326 328 324 321 322 324 322
24 34 18 22 44 269 355 20 358 33 38 111 139 202 181 137 70 60 241 212 89 15 22 8 109 101 79 68 65 48 28 27 82 66 26 37 71 60 60 65 65 54 21 340 331 332 328 327 321 326 327 324 324 321
346 336 358 322 351 51 25 348 334 68 209 206 156 233 181 94 115 205 230 156 59 42 48 47 56 70 99 90 87 70 30 23 46 81 46 51 57 33 41 41 50 51 14 357 346 337 333 331 328 326 324 320 318 318
232 257 181 201 269 146 212 190 220 207 175 191 209 139 81 121 144 239 79 38 65 34 34 61 81 92 75 60 76 44 13 352 16 89 75 59 62 78 51 27 356 336 0 352 337 332 330 330 327 324 319 318 316 314
262 284 239 215 204 269 287 249 221 183 183 198 177 141 142 178 175 87 88 10 51 34 44 51 68 73 98 95 75 38 351 355 61 95 105 90 77 73 81 69 354 318 330 330 321 311 319 320 317 313 313 317 335 351
226 165 187 260 257 218 215 216 225 221 229 133 124 144 160 156 118 35 33 24 75 74 65 56 60 74 81 80 64 15 24 22 95 95 103 87 72 85 62 314 301 319 323 309 295 298 306 304 302 304 308 307 347 360
288 322 21 352 348 14 11 312 300 38 354 117 110 103 87 61 4 2 7 6 48 71 77 77 55 65 68 63 51 42 32 41 70 58 30 316 331 312 341 327 315 307 314 308 310 319 319 318 318 318 339 9 349 354
311 331 84 18 68 344 13 341 8 334 33 84 101 98 79 61 10 344 16 47 64 78 74 73 38 67 85 88 35 29 22 56 79 126 185 264 259 285 312 321 320 312 307 311 318 323 326 341 334 356 7 6 4 4
274 344 6 68 56 26 298 293 250 222 22 85 48 78 102 133 26 16 42 33 75 64 68 49 41 22 74 49 67 51 331 320 3 336 279 256 270 295 305 306 308 324 321 342 337 323 315 342 353 0 10 10 5 8
8 13 355 333 326 342 19 19 349 36 350 129 82 91 67 60 43 321 328 73 50 57 13 128 86 340 268 164 107 220 182 271 296 294 309 273 291 296 313 322 336 358 7 353 337 329 355 9 1 6 4 4 359 360
22 26 34 32 354 349 344 62 21 359 23 52 29 95 97 119 144 231 343 56 142 161 187 221 231 238 199 179 180 246 295 314 324 329 341 334 330 336 338 338 345 14 16 359 344 350 8 12 7 0 358 1 357 356